Regional Weather Roundup
Issued by NWS

Home | Current Version | Previous Version | Graphics & Text | Print | Product List | Glossary On
Versions: 1 2 3 4 5 6 7 8 9 10 11 12 13 14 15 16 17 18 19 20 21 22 23 24 25 26 27 28 29 30 31 32 33 34 35 36 37 38 39 40 41 42 43 44 45 46 47 48 49 50
000
ASUS43 KDTX 281410
RWRMI
MICHIGAN HOURLY REGIONAL WEATHER ROUNDUP
NATIONAL WEATHER SERVICE DETROIT/PONTIAC MI
900 AM EST FRI NOV 28 2014

NOTE: "FAIR" INDICATES FEW OR NO CLOUDS BELOW 12,000 FEET WITH NO
SIGNIFICANT WEATHER AND/OR OBSTRUCTION TO VISIBILITY.

MIZ047>049-052>055-059>063-066>070-074>076-081>083-281500-
SOUTHEAST LOWER MICHIGAN

CITY           SKY/WX    TMP DP  RH WIND       PRES   REMARKS
ADRIAN         CLOUDY    19  12  74 S6        30.33F WCI  11
ALMA           CLOUDY    20  13  73 S3        30.30R
ANN ARBOR      CLOUDY    18  11  74 S5        30.32F WCI  11
BAD AXE        CLOUDY    20  11  66 NW7       30.30S WCI  12
CARO           CLOUDY    18  12  79 CALM      30.30F
DETROIT CITY   PTSUNNY   21   7  54 CALM      30.34F
DETROIT        CLOUDY    20   8  60 S3        30.35F
FLINT          CLOUDY    21  11  65 S5        30.31F WCI  15
GROSSE ILE     CLOUDY    21   9  58 CALM      30.34F
HILLSDALE      CLOUDY    21  18  87 S7        30.27F WCI  12
HOWELL         PTSUNNY   18  13  79 S3        30.29F

CITY           SKY/WX    TMP DP  RH WIND       PRES   REMARKS
JACKSON        CLOUDY    19  10  68 SE7       30.29F WCI  10
LAMBERTVILLE   CLOUDY    21  14  73 CALM      30.35F
LANSING        CLOUDY    19   9  65 S6        30.30F WCI  11
LAPEER         PTSUNNY   19  11  72 W3        30.30F
MASON          CLOUDY    19  11  71 S5        30.30S WCI  13
MONROE         MOSUNNY   18  12  79 CALM      30.33F
MT. CLEMENS    PTSUNNY   20  10  64 W3        30.31S
PONTIAC        CLOUDY    18   9  68 CALM      30.29F
PORT HOPE        N/A     21  10  62 SW5       30.28S WCI  15
PORT HURON     CLOUDY    19  10  68 W3        30.33R
TRI CITIES     CLOUDY    21  12  68 S6        30.31F WCI  13
TROY           CLOUDY    22   9  58 SW3       30.34F
SAGINAW HB     CLOUDY    21  14  73 S6        30.30F WCI  14
$$
MIZ043>046-050>051-056>058-064>065-071>073-077>080-281500-
SOUTHWEST LOWER MICHIGAN

CITY           SKY/WX    TMP DP  RH WIND       PRES   REMARKS
BATTLE CREEK   CLOUDY    23  16  74 S10       30.28F WCI  12
BENTON HARBOR  CLOUDY    21  13  71 S8        30.29S WCI  11
BIG RAPIDS     FLURRIES  19  16  89 S3        30.25R
COLDWATER      CLOUDY    23  17  79 S5        30.28F WCI  17
FREMONT        CLOUDY    19  16  86 S3        30.27R
HOLLAND        CLOUDY    23  18  81 S8        30.28S WCI  14
GRAND RAPIDS   CLOUDY    21  15  78 S8        30.28R WCI  11
IONIA          CLOUDY    22  13  70 S9        30.27S WCI  11
KALAMAZOO      CLOUDY    22  15  75 S9        30.29S WCI  12
LUDINGTON      CLOUDY    19  16  86 S6        30.25F WCI  11
MARSHALL       CLOUDY    20  16  83 S8        30.27F WCI  11
MOUNT PLEASANT CLOUDY    20  12  71 S3        30.28R
MUSKEGON       CLOUDY    21  15  78 SE8       30.28R WCI  11
SOUTH HAVEN    CLOUDY    24  14  64 S7        30.28S WCI  16
$$
MIZ016>042-281500-
NORTHERN LOWER MICHIGAN

CITY           SKY/WX    TMP DP  RH WIND       PRES   REMARKS
ALPENA         CLOUDY    17  13  84 SW5       30.25F WCI  10
BEAVER ISLAND  CLOUDY    21  13  70 SW7       30.20F WCI  13
BELLAIRE       CLOUDY    18  13  80 S8        30.24F WCI   8
CADILLAC       CLOUDY    16  12  86 S5        30.20R WCI   9
CHARLEVOIX     CLOUDY    20  15  79 S5        30.24F WCI  14
FRANKFORT      CLOUDY    19  16  87 SE7       30.23F WCI  10
GAYLORD        CLOUDY    13  10  88 S6        30.18F WCI   4
GRAYLING       CLOUDY    16  12  86 CALM      30.21F
HARBOR SPRINGS LGT SNOW  19  15  85 S7        30.21F WCI  10
HOUGHTON LAKE  CLOUDY    15  12  88 S3        30.23F
MANISTEE       CLOUDY    19  14  79 S5        30.25S WCI  13
OSCODA         MOCLDY    17  14  85 SW6       30.26F WCI   9
PELLSTON       LGT SNOW  18  15  88 SE5       30.22F VSB 1   WCI  11
ROGERS CITY    CLOUDY    17  14  91 SW6       30.25F WCI   8
TRAVERSE CITY  CLOUDY    18  13  80 S5        30.23F WCI  11
$$
MIZ007>008-015-281500-
EASTERN UPPER MICHIGAN

CITY           SKY/WX    TMP DP  RH WIND       PRES   REMARKS
KINROSS        CLOUDY     5   3  92 SE6       30.21F WCI  -6
MACKINAC ISLAN CLOUDY    18  14  83 CALM      30.20F
NEWBERRY       CLOUDY    10   5  80 SW9       30.18F WCI  -2
S. S. MARIE    CLOUDY     4   1  88 E3        30.18F
MUNISING         N/A     11   2  67 SW7       30.19F WCI   0
$$
MIZ004>006-011>014-085-281500-
CENTRAL UPPER MICHIGAN

CITY           SKY/WX    TMP DP  RH WIND       PRES   REMARKS
MANISTIQUE     CLOUDY    11   5  77 CALM      30.20F
ESCANABA       CLOUDY    10   5  79 W5        30.20F WCI   2
MENOMINEE      CLOUDY    10   7  85 W3        30.20F
SAWYER-GWINN   PTCLDY     7   1  78 SW12      30.13F WCI  -9
$$
MIZ001>003-009>011-084-281500-
WESTERN UPPER MICHIGAN

CITY           SKY/WX    TMP DP  RH WIND       PRES   REMARKS
IRON MOUNTAIN  CLOUDY     7   2  80 SE3       30.13F
HOUGHTON       CLOUDY     7   1  76 S3        30.10F
COPPER HARBOR    N/A     11   1  64 SW12G18   30.12F WCI  -3
IRONWOOD       CLOUDY     7   1  78 E3        30.05F
$$

ABBREVIATIONS USED IN REMARKS
   TC - TEMPERATURE IN CELSIUS
  WCI - WIND CHILL INDEX
   HX - HEAT INDEX
  VSB - VISIBILITY




USA.gov is the U.S. government's official web portal to all federal, state and local government web resources and services.